Location: Breitebene
(48.2427°N, 8.0335°E)
Time: 07:17:49
(UTC+00:00)

Daily predictions for brighter satellites

Satellite Brightness Start Highest point End
(mag) Time Altitude Azimuth Time Altitude Azimuth Time Altitude Azimuth
Cosmos 1933 Rocket 4.1 20:08:19 10° NNW 20:12:43 61° W 20:17:05 10° S
Ariane Rocket 3.4 20:11:31 10° SE 20:16:24 49° ENE 20:21:19 10° N
RESURS DK-1 2.3 20:12:30 10° NNW 20:16:37 84° ENE 20:20:40 10° SSE
Meteor 2-10 Rocket 3.8 20:12:06 10° N 20:17:38 60° ENE 20:22:53 10° SSE
CZ-4C R/B 3.5 20:14:33 10° NNE 20:18:43 89° E 20:22:50 10° SSW
Cosmos 1980 Rocket 4.4 20:14:58 10° NW 20:19:01 20° W 20:23:03 10° SW
BREEZE-M DEB (TANK) 4.4 20:15:42 10° W 20:19:35 82° N 20:36:45 10° E
BREEZE-M DEB (TANK) 3.3 20:08:53 10° WSW 20:19:43 79° NNW 20:22:50 10° ENE
Cosmos 1758 3.7 20:18:10 10° N 20:21:59 47° ENE 20:25:46 10° SSE
Cosmos 2322 Rocket 2.3 20:16:37 10° NNW 20:22:20 76° ENE 20:28:01 10° SSE
EXPRESS MD2 2.2 20:20:44 10° WSW 20:23:48 85° NNW 20:26:03 10° ENE
Cosmos 1300 3.0 20:20:35 10° N 20:24:01 44° ENE 20:27:25 10° SSE
MOS 1 Rocket 3.9 20:19:26 10° SSE 20:24:42 58° ENE 20:29:51 10° N
Cosmos 1862 Rocket 4.5 20:21:44 10° SSE 20:25:36 31° E 20:29:31 10° NNE
IRS-1A Rocket 4.4 20:24:22 10° SSE 20:29:52 78° WSW 20:35:26 10° NNW
Meteor 1-22 Rocket 4.4 20:24:21 10° NNW 20:30:01 86° W 20:35:56 10° S
SL-4 R/B 2.8 20:26:32 10° WNW 20:30:15 50° N 20:34:14 10° ENE
Cosmos 1850 Rocket 4.1 20:26:32 10° S 20:31:39 58° ESE 20:36:45 10° NNE
Resurs 01 Rocket 4.2 20:29:35 10° SW 20:32:32 18° W 20:35:31 10° NW
Cosmos 1441 Rocket 4.5 20:31:08 10° NNW 20:34:28 36° W 20:37:48 10° SSW
Cosmos 2315 Rocket 4.1 20:28:08 10° N 20:34:31 70° E 20:40:52 10° SSE
Meteor 1-12 Rocket 4.4 20:29:00 10° N 20:35:04 82° ENE 20:41:05 10° SSE
SJ 16-02 2.2 20:34:19 10° SSE 20:38:07 31° E 20:41:56 10° NE
SPOT 5 3.5 20:34:19 10° S 20:38:28 47° W 20:42:46 10° NNW
SeaSat 1 2.5 20:34:52 10° SSE 20:39:46 81° WSW 20:44:44 10° NNW
Cosmos 968 Rocket 3.8 20:35:56 10° S 20:40:52 48° ESE 20:45:51 10° NNE
Cosmos 2219 Rocket 2.7 20:40:01 10° NNW 20:45:34 51° NE 20:50:39 12° SE
Cosmos 1707 Rocket 3.7 20:41:25 10° S 20:45:47 59° E 20:50:10 10° NNE
Cosmos 1400 Rocket 3.1 20:43:45 10° SSW 20:47:36 66° WNW 20:51:26 10° N
ATLAS CENTAUR R/B 0.8 20:47:36 10° SW 20:51:05 83° SE 20:54:42 10° NE
COSMOS 2428 4.0 20:46:07 10° NNW 20:51:10 31° NE 20:56:12 10° ESE
SPOT 3 Rocket 3.6 20:46:45 11° SSE 20:51:48 89° ENE 20:57:01 10° NNW
Cosmos 1741 Rocket 4.0 20:47:29 10° SSW 20:52:45 81° ESE 20:58:05 10° NNE
Cosmos 1814 Rocket 4.2 20:49:53 10° NNW 20:55:12 69° ENE 20:59:41 15° SSE
Meteor 1-21 4.3 20:49:35 10° S 20:55:18 67° E 21:01:06 10° NNE
USA 234 3.2 20:50:53 10° ENE 20:57:25 69° SE 21:03:55 10° SW
Landsat 4 3.7 20:58:07 13° S 21:01:05 66° WSW 21:04:31 10° NNW
Cosmos 1356 Rocket 3.4 20:56:57 10° S 21:01:08 88° WNW 21:05:22 10° N
Cosmos 1733 Rocket 3.1 20:59:57 10° NNW 21:04:23 79° W 21:08:17 13° S
Okean 1-7 3.7 21:01:50 16° SSE 21:04:55 39° E 21:08:56 10° NNE
Cosmos 1953 3.0 21:01:30 10° N 21:05:06 37° ENE 21:07:31 18° SE
Okean 2 4.1 21:02:36 17° SSE 21:05:14 36° E 21:08:56 10° NNE
BlueWalker 3 2.9 21:03:31 10° SSW 21:06:35 24° SE 21:09:40 10° E
Terra 2.5 21:02:41 10° S 21:07:14 49° W 21:11:51 10° NNW
Cosmos 1315 Rocket 3.4 21:06:12 17° SSE 21:08:53 41° E 21:12:40 10° NNE
ARIANE 5 R/B 4.0 21:07:44 13° ESE 21:10:46 27° ENE 21:14:25 10° N
Cosmos 2360 Rocket 2.5 21:05:44 10° NNW 21:11:20 61° WSW 21:16:02 15° S
ERS-1 Rocket 4.1 21:09:39 10° SSW 21:14:20 39° W 21:19:02 10° NNW
Cosmos 1241 Rocket 4.5 21:09:10 10° SSW 21:15:14 62° ESE 21:21:23 10° NE
Cosmos 1455 2.5 21:15:35 10° N 21:18:58 45° ENE 21:20:53 22° SE
SL-27 R/B 3.1 21:17:15 10° SW 21:19:52 40° WNW 21:22:33 10° N
Cosmos 1908 Rocket 3.9 21:15:43 10° N 21:19:58 50° ENE 21:22:42 20° SE
GP-B 4.0 21:19:44 10° NNE 21:23:48 35° E 21:26:13 20° SE
SL-16 R/B 3.9 21:19:44 10° NW 21:24:17 25° WSW 21:28:49 10° SSW
OPS 8737 4.2 21:22:32 10° NW 21:25:26 65° SW 21:26:56 27° SSE
BREEZE-M DEB (TANK) 4.0 21:22:11 10° WSW 21:26:33 89° SSE 21:45:01 10° E
Aureole 3 3.8 21:25:42 12° SSW 21:29:25 75° W 21:34:31 10° N
Cosmos 2333 Rocket 2.9 21:25:20 10° NW 21:30:50 48° WSW 21:35:13 16° S
GENESIS II 4.4 21:29:18 21° S 21:31:19 41° ESE 21:34:46 10° NE
Cosmos 1346 Rocket 4.1 21:29:25 10° NNW 21:32:53 32° W 21:36:01 12° SSW
Cosmos 2228 Rocket 4.4 21:32:16 10° SW 21:36:33 39° WNW 21:40:52 10° N
Cosmos 1300 Rocket 4.5 21:34:31 10° N 21:38:30 35° ENE 21:40:48 21° SE
COSMOS 2455 3.7 21:38:31 20° SSE 21:41:29 31° ESE 21:46:43 10° NE
Landsat 5 3.8 21:39:25 10° N 21:43:25 63° WNW 21:47:12 12° SSW
ATLAS 2AS CENTAUR R/B 3.3 21:37:03 10° NW 21:43:27 45° WSW 21:47:58 18° S
Meteor 1-4 Rocket 3.2 21:44:36 15° SW 21:46:47 41° WNW 21:49:40 10° N
Cosmos 2237 Rocket 3.4 21:42:23 10° NNW 21:47:31 34° NE 21:52:14 12° ESE
Cosmos 1242 Rocket 1.8 21:47:48 44° SSE 21:48:29 66° E 21:51:12 10° NNE
USA 281 3.4 21:43:40 19° SE 21:48:35 71° ENE 21:55:08 10° NNW
Cosmos 2322 3.7 21:47:04 10° NNW 21:52:47 90° WSW 21:56:21 24° SSE
Cosmos 2227 Rocket 4.1 21:53:23 12° ESE 21:54:52 13° E 21:57:17 10° ENE
Cosmos 839 Rocket 4.5 21:50:06 10° NW 21:56:41 52° WSW 22:00:35 22° S
NOSS 0 Rocket 4.3 21:50:35 10° NNW 21:56:46 62° NE 22:01:14 20° SE
ALOS 2 3.9 21:57:54 17° ESE 22:00:23 29° ENE 22:04:12 10° N
H-2A R/B 3.2 21:58:24 24° SE 22:00:36 45° ENE 22:04:40 10° N
Cosmos 1703 Rocket 3.6 21:59:28 22° SSW 22:02:20 82° W 22:06:49 10° N
Cosmos 2322 Rocket 4.2 22:01:50 10° WNW 22:05:42 19° W 22:09:34 10° SW
SL-4 R/B 2.0 22:05:19 10° WNW 22:09:17 83° NNE 22:12:21 18° ESE
Cosmos 2297 Rocket 3.0 22:11:53 25° SSE 22:14:06 34° ESE 22:19:08 10° NE
SJ 16-02 3.1 22:12:36 10° WSW 22:16:26 30° WNW 22:20:17 10° N
Cosmos 1709 Rocket 4.2 22:14:44 25° SSE 22:18:31 62° E 22:24:46 10° NNE
Cosmos 158 Rocket 4.0 22:18:28 10° NNW 22:23:46 74° WSW 22:26:23 30° S
BREEZE-M DEB (TANK) 3.7 22:21:44 10° W 22:24:49 77° N 22:33:57 10° E
Cosmos 2242 Rocket 3.7 22:23:28 32° S 22:25:28 67° E 22:30:02 10° NNE
Cosmos 1408 1.9 22:27:18 60° S 22:27:46 88° ESE 22:30:46 10° N
MINOTAUR 4 R/B 3.6 22:25:28 10° N 22:28:22 73° WNW 22:28:58 51° SW
BREEZE-M DEB (TANK) 4.2 22:26:14 10° WSW 22:27:27 19° SW 22:27:27 19° SW
ATLAS CENTAUR R/B 4.1 22:26:53 10° WNW 22:29:14 16° NNW 22:31:38 10° N
Cosmos 2219 Rocket 3.5 22:24:24 10° NW 22:29:15 30° WSW 22:32:21 18° SSW
CZ-4C R/B 2.0 22:28:53 31° S 22:30:52 54° ESE 22:36:17 10° NE
EXPRESS MD2 2.5 22:29:06 10° WNW 22:30:57 54° NW 22:30:57 54° NW
COSMOS 2428 3.1 22:30:09 10° NW 22:35:42 54° WSW 22:38:32 28° S
NOSS 8 (E) 4.5 22:34:57 20° SW 22:37:26 77° NW 22:40:35 10° NE
CZ-2C R/B 4.3 22:34:18 10° N 22:38:35 51° WNW 22:41:29 20° SW
CENTAUR R/B 3.5 22:37:03 21° SE 22:38:36 24° ESE 22:43:41 10° ENE
BREEZE-M DEB (TANK) 3.5 22:26:48 10° W 22:39:41 81° N 22:43:17 10° E
USA 234 4.0 22:34:00 10° NE 22:40:21 56° NNW 22:46:42 10° W
Cosmos 1953 4.4 22:37:59 10° NW 22:40:38 18° W 22:42:38 13° WSW
Meteor 2-5 Rocket 3.9 22:40:28 29° S 22:43:31 66° E 22:49:18 10° NNE
BlueWalker 3 2.0 22:40:44 10° WSW 22:44:28 75° NNW 22:48:13 10° ENE
Cosmos 405 Rocket 3.0 22:41:12 10° N 22:44:54 54° ENE 22:46:03 37° SE
Cosmos 2263 Rocket 4.2 22:43:42 11° ESE 22:45:21 12° E 22:47:30 10° ENE
ARIANE 5 R/B 3.6 22:45:12 24° SW 22:47:02 35° W 22:51:03 10° NNW
Cosmos 773 Rocket 3.9 22:45:16 10° NNW 22:50:26 80° WSW 22:52:47 33° SSE
Cosmos 1174 4.3 22:45:50 10° NNW 22:50:53 65° NE 22:52:58 28° SE
Okean 1 Rocket 4.3 22:49:29 10° N 22:53:25 32° ENE 22:55:26 22° ESE
Cosmos 371 Rocket 3.3 22:53:41 28° SSW 22:56:13 82° WNW 23:01:04 10° NNE
Cosmos 546 4.5 22:52:26 10° WNW 22:56:17 71° SSW 22:57:34 39° SE
Cosmos 2084 Rocket 3.6 22:57:00 41° SSE 22:57:54 49° SE 23:01:56 10° NE
Cosmos 1892 3.0 23:05:53 40° ESE 23:06:24 44° E 23:09:46 10° NNE
PSLV R/B 3.7 23:02:29 10° NNE 23:06:39 56° E 23:07:52 39° SSE
Cosmos 1777 Rocket 4.0 23:05:54 32° SSW 23:08:24 79° ESE 23:13:42 10° NNE
H-2A R/B 2.7 23:05:53 10° NNE 23:09:52 39° E 23:10:59 32° SE
Cosmos 1503 Rocket 4.0 23:07:09 29° SSW 23:09:59 86° WNW 23:15:20 10° NNE
Cosmos 1703 3.8 23:12:37 32° SW 23:13:52 46° WNW 23:17:25 10° N
Cosmos 2181 Rocket 4.0 23:17:31 10° NNW 23:23:43 75° W 23:26:52 30° S
NOSS 8 (A) 4.2 23:22:52 10° NW 23:25:51 83° NE 23:26:36 51° SE
SL-16 R/B 2.8 23:20:19 10° NNW 23:25:56 55° ENE 23:30:12 17° SE
COSMOS 2455 3.4 23:21:35 12° SW 23:27:08 57° NW 23:33:06 10° NNE
Cosmos 1825 1.8 23:26:52 59° SSE 23:27:23 73° E 23:30:49 10° NNE
Cosmos 1328 4.3 23:26:46 37° SE 23:27:42 45° E 23:31:26 10° NNE
Cosmos 1455 Rocket 4.4 23:24:52 10° N 23:28:54 33° ENE 23:31:18 20° ESE
NOSS 3-2 (A) 4.0 23:27:47 27° SE 23:29:17 32° ESE 23:34:29 10° NE
Cosmos 2151 Rocket 3.6 23:25:11 10° NNW 23:29:34 67° W 23:31:01 40° SSW
GEOS 3 Rocket 4.3 23:25:25 10° NE 23:30:09 36° ESE 23:31:36 30° SSE
BREEZE-M DEB (TANK) 3.2 23:29:09 23° WSW 23:30:51 88° S 23:37:06 10° ENE
Cosmos 2237 Rocket 2.6 23:26:20 10° NW 23:31:46 48° WSW 23:34:01 31° SSW
USA 281 4.5 23:30:32 19° SW 23:33:35 26° WSW 23:39:00 10° NW
Cosmos 2074 Rocket 4.0 23:30:40 30° S 23:33:54 79° E 23:40:08 10° NNE
Cosmos 2098 Rocket 4.5 23:28:35 10° NNW 23:34:58 52° W 23:38:18 27° SSW
H-2A R/B 4.3 23:34:22 18° WSW 23:35:43 21° W 23:38:57 10° NW
Okean 2 Rocket 3.2 23:31:24 10° NNW 23:35:50 63° W 23:37:23 38° SSW
ALOS 2 3.7 23:35:18 27° SW 23:36:39 33° W 23:40:39 10° NNW
Cosmos 1674 Rocket 3.5 23:35:17 39° SSW 23:36:52 75° W 23:41:13 10° N
Cosmos 1378 Rocket 3.7 23:35:17 35° SW 23:36:57 63° WNW 23:41:19 10° N
Cosmos 2227 Rocket 2.2 23:35:09 31° SSW 23:37:56 78° ESE 23:43:38 10° NNE
Cosmos 1025 Rocket 3.5 23:37:38 34° SE 23:39:05 49° E 23:43:15 10° NNE
SL-4 R/B 3.2 23:44:16 10° W 23:47:03 27° WSW 23:47:03 27° WSW
Cosmos 1898 Rocket 4.5 23:47:23 25° SE 23:49:26 34° ESE 23:54:04 10° NE
Cosmos 332 Rocket 3.9 23:48:04 30° SW 23:50:25 71° WNW 23:55:20 10° NNE
